Date,TemperatureHighF,TemperatureAvgF,TemperatureLowF,DewpointHighF,DewpointAvgF,DewpointLowF,HumidityHigh,HumidityAvg,HumidityLow,PressureMaxIn,PressureMinIn,WindSpeedMaxMPH,WindSpeedAvgMPH,GustSpeedMaxMPH,PrecipitationSumIn
2013-1-18,16,15,14,8,7,5,73,70,65,30.38,30.32,0,0,0,0.00
2013-1-27,28,20,10,24,13,3,84,74,64,30.41,30.08,0,0,0,0.00
2013-1-28,43,36,30,40,32,25,89,87,84,30.08,29.83,0,0,0,0.00
2013-1-29,54,44,34,51,41,30,91,90,88,29.98,29.48,0,0,0,0.00
2013-1-30,57,48,33,54,45,28,90,89,84,29.43,29.14,0,0,0,0.00
2013-1-31,30,21,15,25,15,10,81,75,68,29.84,29.28,0,0,0,0.00
2013-2-1,17,13,8,11,7,1,81,76,70,30.21,29.85,0,0,0,0.00
2013-2-2,23,17,8,17,11,2,80,77,74,30.15,29.90,0,0,0,12.91
2013-2-3,21,12,1,15,6,-5,81,76,69,29.96,29.80,0,0,0,0.00
2013-2-4,23,19,15,17,13,8,80,77,70,29.97,29.83,0,0,0,0.00
2013-2-5,27,20,5,22,14,-1,83,78,71,29.92,29.77,0,0,0,0.00
2013-2-6,30,22,9,21,15,4,83,73,63,30.25,29.92,0,0,0,0.00
2013-2-7,37,29,23,28,21,15,75,72,67,30.23,29.90,0,0,0,0.00
2013-2-8,29,25,14,24,19,8,85,79,72,30.29,29.77,0,0,0,0.00
2013-2-9,30,18,2,21,11,-4,84,74,64,30.39,30.23,0,0,0,0.00
2013-2-10,37,29,18,32,23,14,85,78,66,30.22,29.67,0,0,0,0.00
2013-2-11,42,36,31,39,30,24,88,78,70,29.83,29.54,0,0,0,0.00
2013-2-12,32,30,27,24,22,20,76,73,71,30.00,29.84,0,0,0,0.00
2013-2-13,37,30,26,26,21,19,76,71,62,29.90,29.70,0,0,0,0.00
2013-2-14,37,33,24,31,26,18,84,77,75,29.82,29.65,0,0,0,12.91
2013-2-15,33,27,22,26,17,12,77,66,57,30.08,29.82,0,0,0,0.00
2013-2-16,26,19,14,18,12,8,77,73,66,30.06,29.97,0,0,0,0.00
2013-2-23,31,29,27,27,23,20,85,80,76,29.88,29.84,0,0,0,0.00
2013-3-4,31,17,11,21,11,5,81,76,64,30.11,30.03,0,0,0,0.00
2013-3-11,47,41,36,43,36,30,86,81,79,29.67,29.51,0,0,0,0.00
2013-3-12,36,33,28,30,27,22,82,78,71,29.88,29.66,0,0,0,0.00
2013-3-19,25,24,22,18,16,16,80,73,69,29.90,29.69,0,0,0,0.00
2013-3-20,28,23,16,18,14,8,70,66,60,29.91,29.85,0,0,0,0.00
2013-3-21,22,16,15,16,10,8,79,75,70,29.89,29.82,0,0,0,0.00
2013-4-2,40,32,22,19,16,11,72,51,40,30.21,30.06,0,0,0,0.00
2013-4-3,36,26,22,19,13,10,63,57,48,30.37,30.21,0,0,0,0.00
2013-6-9,68,67,66,53,52,51,60,59,59,29.97,29.96,7,1,7,0.00
2013-6-10,73,65,60,66,60,51,89,82,59,29.95,29.74,8,0,8,1.20
2013-6-11,82,71,63,66,63,60,90,76,56,29.91,29.77,7,0,7,0.00
2013-6-12,76,68,60,67,62,56,88,81,73,29.94,29.65,6,0,6,0.47
2013-6-13,78,68,60,62,58,56,89,74,50,29.94,29.57,13,0,13,1.10
2013-6-14,79,66,56,58,54,50,85,66,43,30.08,29.94,8,0,8,0.00
2013-6-15,82,68,53,62,57,48,87,69,49,30.08,29.93,8,0,8,0.02
2013-6-16,82,70,61,66,60,52,88,71,46,29.93,29.78,18,1,18,0.63
2013-6-17,88,72,56,64,57,51,86,63,38,29.94,29.83,10,0,10,0.00
2013-6-18,74,64,54,57,51,41,84,65,43,30.07,29.89,8,0,8,0.21
2013-6-19,78,63,45,53,47,38,78,57,39,30.16,30.06,10,0,10,0.00
2013-6-20,85,69,51,59,52,45,83,58,38,30.21,30.13,8,0,8,0.00
2013-6-21,89,72,57,67,58,50,82,62,44,30.20,30.05,4,0,4,0.00
2013-6-22,90,75,67,72,63,55,74,66,55,30.09,30.00,5,0,5,0.00
2013-6-23,92,83,68,70,67,63,86,60,45,30.07,29.96,12,0,12,0.00
2013-6-24,91,78,66,71,66,59,83,68,49,30.07,29.92,6,0,6,0.16
2013-6-25,84,73,66,72,66,61,88,79,65,30.00,29.84,6,0,6,0.37
2013-6-26,83,74,64,71,66,60,89,77,63,29.90,29.75,5,0,5,0.04
2013-6-27,86,72,65,72,66,61,88,81,62,29.78,29.64,6,0,6,1.47
2013-6-28,76,67,62,67,62,58,90,83,66,29.65,29.53,10,0,10,0.08
2013-6-29,74,66,62,63,60,56,89,80,68,29.75,29.56,6,0,6,0.04
2013-6-30,80,69,60,62,58,50,84,68,48,29.96,29.74,10,0,10,0.00
2013-7-1,67,62,57,57,52,45,84,71,58,30.07,29.95,8,0,8,0.06
2013-7-2,74,66,58,62,57,52,84,75,64,30.07,30.01,7,0,7,0.02
2013-7-3,84,71,59,68,62,55,87,74,54,30.10,30.03,8,0,8,0.00
2013-7-4,82,74,66,66,63,59,86,70,52,30.14,30.07,6,0,6,0.00
2013-7-5,89,76,67,68,63,58,84,66,40,30.12,30.05,6,0,6,0.00
2013-7-6,86,75,66,70,66,61,85,73,56,30.11,30.00,6,0,6,0.29
2013-7-7,85,74,69,70,66,62,88,77,56,30.04,29.96,7,0,7,0.00
2013-7-8,84,72,68,74,66,62,88,82,72,30.06,29.99,4,0,4,0.34
2013-8-16,80,66,50,58,53,46,87,65,42,30.20,30.11,3,0,3,0.00
2013-8-17,81,67,52,60,54,47,86,64,41,30.27,30.18,7,1,7,0.00
2013-8-18,84,69,56,66,56,50,86,66,43,30.22,30.11,1,0,1,0.00
2013-8-19,84,70,55,63,56,50,85,64,39,30.12,30.04,0,0,0,0.00
2013-8-20,87,73,57,67,60,52,85,67,47,30.15,30.07,7,0,7,0.00
2013-8-21,87,74,62,70,64,57,86,71,54,30.13,30.00,6,0,6,0.00
2013-8-22,84,75,68,68,65,62,82,72,58,30.05,29.95,6,0,6,22.74
2013-8-23,83,71,57,64,56,52,85,62,36,30.20,30.04,7,0,7,0.00
2013-8-24,84,70,54,64,56,49,86,64,44,30.31,30.20,5,0,5,0.00
2013-8-25,88,73,56,65,59,50,86,64,44,30.29,30.15,7,0,7,0.00
2013-8-26,88,77,67,71,65,58,75,66,55,30.17,29.99,9,1,9,0.00
2013-8-27,85,76,70,75,70,66,87,81,72,30.01,29.83,10,0,10,23.66
2013-8-28,80,75,68,73,70,64,90,85,76,30.01,29.80,8,0,8,0.92
2013-8-29,87,75,64,72,66,60,90,76,55,30.08,30.01,5,0,5,0.00
2013-8-30,87,76,64,71,66,60,89,73,56,30.01,29.75,10,0,10,0.00
2013-8-31,82,75,67,70,66,61,85,75,61,29.86,29.76,5,0,5,0.00
2013-9-1,82,72,66,71,65,61,86,79,68,29.87,29.73,5,0,5,0.04
2013-9-2,77,68,58,67,59,50,87,73,58,29.93,29.73,11,2,11,0.00
2013-9-3,75,64,56,57,52,48,78,66,50,30.01,29.92,9,1,9,0.00
2013-9-4,80,68,52,62,57,47,88,69,51,30.08,30.01,9,1,9,0.00
2013-9-5,72,62,51,58,50,44,82,64,45,30.25,30.07,10,1,10,0.00
2013-9-6,76,61,44,52,47,39,86,63,42,30.27,30.06,8,0,8,0.00
2013-9-7,83,67,54,68,58,47,84,74,57,30.07,29.90,10,0,10,0.04
2013-9-8,75,68,57,63,58,47,85,71,54,30.09,29.94,8,0,8,0.00
2013-9-9,77,64,53,69,58,46,87,80,71,30.07,29.91,6,0,6,0.20
2013-9-10,92,80,68,73,68,64,89,70,45,30.02,29.89,13,0,13,0.00
2013-9-11,90,76,68,72,66,62,86,73,55,30.04,29.92,12,0,12,0.29
2013-9-12,78,69,64,64,61,55,90,76,50,29.96,29.86,9,1,9,0.02
2013-9-13,57,52,43,45,43,37,80,70,59,30.12,29.97,7,1,7,0.00
2013-9-14,68,53,36,48,41,32,88,67,44,30.18,30.08,4,0,4,0.00
2013-9-15,62,54,44,52,46,39,84,77,64,30.11,30.06,3,0,3,0.08
2013-9-16,61,54,46,50,47,40,87,77,59,30.36,30.12,7,1,7,0.00
2013-9-17,66,53,36,51,42,32,87,70,49,30.38,30.20,5,0,5,0.00
2013-9-18,77,61,45,58,50,40,87,69,46,30.19,30.03,8,1,8,0.00
2013-9-19,80,74,56,67,64,52,86,71,64,30.03,29.92,6,1,6,24.96
2013-9-20,79,71,66,69,65,62,89,83,66,29.92,29.74,12,0,12,0.25
2013-9-21,66,61,53,62,53,44,89,77,56,29.88,29.69,11,1,11,0.02
2013-9-22,59,52,44,44,41,37,77,67,56,30.07,29.87,7,1,8,0.00
2013-9-23,60,48,38,46,40,33,88,74,57,30.18,30.06,4,0,4,0.00
2013-9-24,69,53,40,52,44,36,88,71,51,30.14,29.99,6,0,6,0.00
2013-9-25,71,56,44,55,46,39,88,72,51,30.00,29.94,7,0,7,0.00
2013-9-26,78,58,42,58,47,37,88,69,42,30.13,30.00,4,0,4,0.00
2013-9-27,77,60,44,58,49,40,88,69,49,30.22,30.13,8,1,8,0.00
2013-9-28,77,63,49,61,52,44,89,70,47,30.19,30.01,10,1,10,0.00
2013-9-29,63,60,58,58,54,50,87,81,74,30.02,29.95,0,0,0,0.12
2013-9-30,69,61,52,59,53,46,88,76,54,30.01,29.92,6,0,6,0.00
2013-10-1,72,59,47,62,53,43,90,81,68,30.00,29.93,6,0,6,0.00
2013-10-2,79,65,53,60,53,45,90,68,38,30.08,29.94,6,0,6,0.00
2013-10-3,79,65,52,66,57,45,86,76,64,30.06,29.92,9,0,9,0.00
2013-10-4,77,70,63,66,63,57,87,79,69,30.03,29.94,10,0,10,0.00
2013-10-5,72,67,63,67,63,59,90,85,80,30.04,29.86,8,0,8,0.94
2013-10-6,69,64,53,65,60,50,90,86,79,29.86,29.64,17,0,17,0.32
2013-10-7,57,50,43,50,44,38,89,82,71,30.10,29.69,12,1,12,0.02
2013-10-8,67,52,38,52,42,34,90,71,49,30.26,30.10,7,0,7,0.00
2013-10-9,70,54,41,55,44,36,88,70,49,30.30,30.20,12,1,12,0.00
2013-10-10,71,54,42,56,44,38,88,70,46,30.22,30.12,7,0,7,0.00
2013-10-11,71,55,40,53,44,36,88,69,43,30.14,30.06,6,0,6,0.00
2013-10-12,75,60,46,61,50,42,88,72,48,30.09,30.02,9,1,9,0.00
2013-10-13,68,58,44,54,46,37,85,66,43,30.33,30.07,9,1,9,0.00
2013-10-14,64,50,40,45,40,35,87,69,49,30.39,30.25,8,0,8,0.00
2013-10-15,64,52,40,57,47,35,87,81,73,30.26,29.82,8,1,8,0.06
2013-10-16,61,54,50,57,48,43,89,79,64,29.90,29.79,14,1,14,0.03
2013-10-17,51,49,46,46,44,41,87,84,80,29.89,29.74,7,0,7,0.22
2013-10-18,60,49,38,47,41,35,89,74,50,29.90,29.83,13,1,13,0.00
2013-10-19,46,43,38,42,38,34,86,83,77,29.89,29.74,9,0,9,0.26
2013-10-20,56,46,35,43,38,32,88,75,57,29.89,29.81,14,0,14,0.02
2013-10-21,53,49,40,46,40,32,81,73,66,29.85,29.78,10,1,10,0.03
2013-10-22,49,40,30,34,29,23,80,66,51,29.89,29.82,13,1,13,0.00
2013-10-23,46,38,29,35,28,24,86,70,49,29.91,29.80,11,1,11,0.00
2013-10-24,46,36,30,35,29,25,85,74,51,30.15,29.89,14,1,14,0.00
2013-10-25,46,37,29,36,29,24,87,73,59,30.29,30.07,9,0,9,0.00
2013-10-26,49,42,35,36,30,27,83,65,55,30.07,29.76,13,1,13,0.14
2013-10-27,50,39,30,36,31,26,87,74,53,30.04,29.95,8,0,8,0.00
2013-10-28,51,39,29,40,31,24,85,74,63,30.37,30.03,7,0,7,0.00
2013-10-29,50,42,36,37,32,29,75,69,59,30.40,30.21,7,0,7,0.00
2013-10-30,62,46,31,48,37,26,86,71,54,30.21,29.94,8,1,8,0.12
2013-10-31,60,58,52,57,54,46,90,89,81,29.94,29.17,8,0,8,1.16
2013-11-1,59,48,44,56,42,37,90,78,69,29.65,29.13,19,2,19,0.04
2013-11-2,45,44,44,41,40,40,87,85,83,29.65,29.63,4,0,4,0.08